Jacob Walker

Olheiro-Chefe - Peterborough United
3 Abr 2027
Sábado
Processo

Personalidade

Adaptabilidade (20) Ambição (1) Controvérsia (17) Lealdade (16) Pressão (3) Profissionalismo (2) Espírito Esportivo (4) Temperamento (1)

Perfil

Estilo de Treinamento Democrático
Licença Continental Pro
Determinação 6
Gestão de Pessoas 7
Motivação 9
Disciplina 3
Satisfação no Trabalho
100%
Fadiga
0%
Função Olheiro-Chefe
Salário 61.3K p/s
Contrato 14.03.2028

Desempenho

Comportamento Bom
Eficácia do Treinamento
31%
Desenvolvimento do Jogador
55%
Prevenção de Lesões
45%
Implementação Tática
15%

Eventos Recentes

Participou de uma reunião de recrutamento agora
Recomendou um alvo de transferência agora
Participou de uma reunião de recrutamento 7d atrás
Recomendou um alvo de transferência 7d atrás
Recomendou um alvo de transferência 7d atrás
Recomendou um alvo de transferência 7d atrás
Recomendou um alvo de transferência 14d atrás
Recomendou um alvo de transferência 14d atrás

Monitorando agora

176
Jogador Clube Status Habilidade Confiança Observado Última observação Último voto
Ibrahim Tarek Masr El Makasa Ativo 133 / 120 40% 3 18.01.2027 -
Vitalii Dakhnovskyi Bukovyna Ativo 100 / 101 40% 2 18.01.2027 -
Kyle John Port Vale Relatório pronto 97 / 99 65% 1 18.01.2027 Aprovar
Jack Currie Oxford United Ativo 128 / 113 40% 1 18.01.2027 -
Mohammed Hussein Hearts of Oak Ativo 101 / 107 40% 3 16.01.2027 -
Mpho Mathebula Bloemfontein Celtic Ativo 112 / 106 40% 2 16.01.2027 -
Hlompho Zungu Free State Stars Ativo 100 / 76 40% 1 16.01.2027 -
Happy Mashiane Bidvest Wits Ativo 102 / 91 40% 2 14.01.2027 -
Riley Owen Pergolettese Ativo 95 / 97 40% 1 14.01.2027 -
Isaac Twum Hearts of Oak Ativo 96 / 104 40% 3 13.01.2027 -
Juan Bezerra Zamalek Ativo 121 / 123 40% 1 13.01.2027 -
Brian Figueroa Morelia Ativo 103 / 110 40% 1 13.01.2027 -
Wandile Duba Bidvest Wits Ativo 112 / 95 40% 9 11.01.2027 -
Fábio Tavares Newport County Ativo 100 / 101 40% 2 10.01.2027 -
Yevhen Pidlepenets Bukovyna Ativo 107 / 106 40% 1 10.01.2027 -
Kyreece Lisbie Colchester United Ativo 114 / 119 40% 1 10.01.2027 -
Jordan Bowery Mansfield Town Perdido 102 / 98 65% 1 06.01.2027 -
Sebastian Soto ES Ben Aknoun Ativo 108 / 95 40% 3 29.12.2026 -
Rodney Maphangule Polokwane City Ativo 92 / 96 40% 2 29.12.2026 -
Tomás Molina Argentinos Juniors Ativo 133 / 115 40% 2 29.12.2026 -
Gilson Benchimol Akron Ativo 121 / 95 40% 1 29.12.2026 -
Samuel Adegbenro Dynamo Kyiv Ativo 116 / 135 40% 4 27.12.2026 -
Marcus Browne AFC Wimbledon Ativo 111 / 114 40% 2 27.12.2026 -
Jorge Padilla Cherno More Ativo 112 / 120 40% 2 27.12.2026 -
Edarlyn Reyes Arsenal Tula Ativo 103 / 114 40% 2 26.12.2026 -
Qara Ozobic Inter Ativo 101 / 107 40% 1 26.12.2026 -
Luke Molyneux Doncaster Rovers Rejeitado 116 / 120 40% 1 26.12.2026 Mais informações
Richard Boadu Aduana Stars Ativo 98 / 93 40% 1 26.12.2026 -
Asanele Bonani Chippa United Ativo 101 / 95 40% 1 26.12.2026 -
Kwame Opoku Asante Kotoko Ativo 108 / 103 40% 2 23.12.2026 -
Mykola Haiduchyk Polissia Ativo 102 / 120 40% 1 23.12.2026 -
Itumeleng Manyama Free State Stars Ativo 102 / 101 40% 3 22.12.2026 -
Bradley Mothiba SuperSport United Ativo 100 / 93 40% 3 22.12.2026 -
Alexandr Yushin Torpedo Moscow Ativo 96 / 104 40% 1 22.12.2026 -
Sam Nombe Milton Keynes Dons Ativo 105 / 115 40% 1 22.12.2026 -
Jack Vale Alcione Milano Ativo 88 / 94 40% 1 22.12.2026 -
Brandon Hanlan Doncaster Rovers Ativo 97 / 101 40% 1 20.12.2026 -
Miro Dinamo Makhachkala Ativo 99 / 115 40% 1 20.12.2026 -
Amos Inusah Wa All Stars Ativo 111 / 105 40% 9 19.12.2026 -
Suleiman Abdullahi Military Production Ativo 85 / 97 40% 2 19.12.2026 -
Felix Kudus Hasaacas Ativo 94 / 92 40% 2 19.12.2026 -
Stephen Humphrys Bradford City Rejeitado 111 / 99 40% 1 19.12.2026 Mais informações
Isaac Hemans Ashanti Gold Ativo 110 / 110 40% 1 18.12.2026 -
Gift Mokoena Free State Stars Ativo 117 / 104 40% 1 18.12.2026 -
Lebogang Zwane Black Aces Ativo 114 / 114 40% 1 18.12.2026 -
Thulani Mabaso Platinum Stars Ativo 116 / 108 40% 3 17.12.2026 -
Luke Baartman Chippa United Ativo 113 / 98 40% 1 14.12.2026 -
Milán Tóth Vasas Ativo 117 / 124 40% 1 13.12.2026 -
Frédéric Maciel CSKA 1948 Ativo 102 / 99 40% 1 13.12.2026 -
Agustín Ramírez Inter Ativo 112 / 91 40% 2 11.12.2026 -
Duncan Watmore Rotherham United Ativo 105 / 119 40% 1 11.12.2026 -
Hakim Sulemana Ashanti Gold Ativo 96 / 112 40% 1 11.12.2026 -
Akinkunmi Amoo Ismaily Ativo 108 / 108 40% 1 11.12.2026 -
Luther Zwane Platinum Stars Ativo 104 / 126 40% 3 09.12.2026 -
Siyanda Msani University of Pretoria Ativo 116 / 97 40% 2 09.12.2026 -
Jack Marriott Reading Ativo 97 / 92 40% 1 09.12.2026 -
Derrick Etienne Jr. Toronto FC Ativo 112 / 107 40% 1 09.12.2026 -
Elvis Baffour Asante Kotoko Ativo 83 / 87 40% 1 09.12.2026 -
John Okoye Ebuka Ittihad Ativo 107 / 114 40% 2 07.12.2026 -
Luca Martínez Dupuy Godoy Cruz Rejeitado 120 / 127 40% 1 07.12.2026 Mais informações
Barna Tóth Paksi Ativo 103 / 107 40% 1 07.12.2026 -
Kahraba ENPPI Ativo 107 / 101 40% 2 06.12.2026 -
Tiago Pucciarelli FK Senica Ativo 103 / 115 40% 1 06.12.2026 -
Makabi Lilepo Kaizer Chiefs Ativo 116 / 113 40% 1 06.12.2026 -
Themba Manyama Ajax Cape Town Ativo 101 / 88 40% 4 05.12.2026 -
Silas Nwankwo Police Union Ativo 85 / 98 40% 4 05.12.2026 -
Jerome Karelse Golden Arrows Ativo 108 / 111 40% 2 05.12.2026 -
Favio Cabral Mitre Ativo 129 / 105 40% 2 04.12.2026 -
Assad Al Hamlawi Universitatea Craiova Ativo 128 / 114 40% 3 04.12.2026 -
Azola Matrose Chippa United Ativo 108 / 87 40% 2 04.12.2026 -
Mark Helm Fleetwood Town Ativo 101 / 105 40% 1 04.12.2026 -
Mpho Mvundlela Polokwane City Ativo 104 / 107 40% 1 04.12.2026 -
Andile Zungu Platinum Stars Ativo 117 / 96 40% 1 03.12.2026 -
Simphiwe Selepe Orlando Pirates Ativo 102 / 111 40% 1 03.12.2026 -
Achraf Bencharki Al Ahly Ativo 129 / 125 40% 6 01.12.2026 -
Jhonatan Candia Barracas Central Ativo 120 / 111 40% 6 28.11.2026 -
Yanela Mbuthuma Orlando Pirates Ativo 120 / 107 40% 3 28.11.2026 -
Dino Islamović Rosenborg Ativo 124 / 128 40% 2 27.11.2026 -
Rodrigo Bogarín Barracas Central Ativo 131 / 125 40% 2 27.11.2026 -
Matthew Hoppe SonderjyskE Ativo 119 / 111 40% 2 27.11.2026 -
Mandla Dala SuperSport United Ativo 103 / 100 40% 2 26.11.2026 -
Aaron Drinan Swindon Town Ativo 98 / 108 40% 1 26.11.2026 -
Yurii Klymchuk Kolos Ativo 110 / 105 40% 1 26.11.2026 -
Sazi Gumbi Bloemfontein Celtic Ativo 94 / 100 40% 1 26.11.2026 -
Erick Ngcobo Black Aces Rejeitado 104 / 87 40% 2 25.11.2026 Mais informações
Stefan Vukić Rudes Ativo 108 / 121 40% 1 24.11.2026 -
Bienvenue Kanakimana Zbrojovka Brno Ativo 107 / 119 40% 1 20.11.2026 -
Emiliano Marcondes OB Ativo 116 / 98 40% 4 19.11.2026 -
George Puşcaş Dinamo Bucharest Ativo 122 / 133 40% 4 16.11.2026 -
Noah Ganaus OB Ativo 117 / 121 40% 1 15.11.2026 -
Isaiah Nyarko Bechem United Ativo 75 / 104 40% 1 15.11.2026 -
Sinoxolo Kwayiba Chippa United Rejeitado 103 / 115 40% 2 14.11.2026 Mais informações
Dillon Hoogewerf ES Mostaganem Ativo 103 / 92 40% 1 13.11.2026 -
Ali Soliman Masr El Makasa Ativo 118 / 130 40% 1 13.11.2026 -
Brian White Vancouver Whitecaps Ativo 123 / 113 40% 5 11.11.2026 -
Rivaldo Ngcobo Free State Stars Ativo 98 / 101 40% 5 11.11.2026 -
Solly Khunyedi Bloemfontein Celtic Ativo 86 / 85 40% 2 10.11.2026 -
Iuri Tavares NK Varazdin Ativo 110 / 117 40% 1 10.11.2026 -
Tashreeq Morris Bloemfontein Celtic Ativo 95 / 107 40% 2 07.11.2026 -
Facundo Castro Nueva Chicago Ativo 110 / 112 40% 4 07.11.2026 -
Salah Mohsen El Masry Ativo 121 / 132 40% 1 06.11.2026 -
Corey Baird CF Montreal Ativo 123 / 112 40% 4 05.11.2026 -
Marcelo Torres Gimnasia La Plata Ativo 130 / 104 40% 2 04.11.2026 -
Keagan Manyama Ajax Cape Town Ativo 115 / 113 40% 1 04.11.2026 -
Patrick Djiku WAFA Ativo 98 / 94 40% 1 04.11.2026 -
David Atanga FC Copenhagen Ativo 118 / 117 40% 1 02.11.2026 -
Florin Tănase FCSB Ativo 118 / 128 40% 1 31.10.2026 -
Sergio Santos Atlanta United FC Ativo 104 / 99 40% 2 30.10.2026 -
Rodin Quiñónes Dinamo Batumi Ativo 124 / 117 40% 1 29.10.2026 -
Teboho Kekana Free State Stars Ativo 100 / 72 40% 1 29.10.2026 -
Ernest Agyiri Randers Ativo 92 / 106 40% 1 29.10.2026 -
Gift Motupa Bloemfontein Celtic Ativo 87 / 84 40% 2 27.10.2026 -
Andreas Gruber DAC Dunajska Streda Ativo 119 / 109 40% 1 27.10.2026 -
Timothy Zechariah Rivers United Ativo 95 / 88 40% 1 27.10.2026 -
Harry Cornick AFC Wimbledon Ativo 98 / 113 40% 1 24.10.2026 -
Marcelo Estigarribia Unión de Santa Fe Ativo 109 / 132 40% 2 23.10.2026 -
Preston Judd San Jose Earthquakes Ativo 92 / 116 40% 3 22.10.2026 -
Leandro Suhr Boston River Ativo 124 / 134 40% 4 21.10.2026 -
Álex Arce Independiente Rivadavia Ativo 139 / 118 40% 1 21.10.2026 -
Maclyn Biokpo Jenewari Rivers United Ativo 88 / 121 40% 2 17.10.2026 -
Beryly Lubala CSKA 1948 Ativo 86 / 98 40% 2 16.10.2026 -
Michael Vadulli Audax Italiano Ativo 115 / 113 40% 1 12.10.2026 -
Hamdi Akujobi Jomo Cosmos Ativo 115 / 116 40% 1 12.10.2026 -
Simon Ramabu Polokwane City Ativo 109 / 111 40% 1 12.10.2026 -
Fortune Bassey Rivers United Ativo 97 / 104 40% 1 10.10.2026 -
Federico Martínez Liverpool Montevideo Ativo 128 / 122 40% 1 10.10.2026 -
Alejandro Melo Temperley Ativo 126 / 108 40% 1 09.10.2026 -
Lucio Castillo Colegiales Ativo 112 / 119 40% 1 09.10.2026 -
Uroš Đuranović Sliema Wanderers Ativo 110 / 99 40% 3 08.10.2026 -
Ronan Hale Gillingham Ativo 116 / 116 40% 2 07.10.2026 -
Siphelele Mthembu Maritzburg United Ativo 92 / 89 40% 1 06.10.2026 -
Ronaldo Maarman University of Pretoria Ativo 97 / 118 40% 1 06.10.2026 -
Chukwuemeka Obioma Abia Warriors Ativo 90 / 89 40% 2 03.10.2026 -
Evidence Mokoena Platinum Stars Ativo 88 / 92 40% 1 03.10.2026 -
Edwar López Deportes Tolima Ativo 128 / 122 40% 2 29.09.2026 -
Michael Nike Patriotas Ativo 93 / 122 40% 2 29.09.2026 -
Kyogo Furuhashi LA Galaxy Ativo 111 / 97 40% 2 28.09.2026 -
Esteban Obregón Montevideo City Torque Ativo 110 / 98 40% 1 28.09.2026 -
Franco Fagúndez Estudiantes Ativo 103 / 106 40% 2 27.09.2026 -
Juan Dinenno Pumas UNAM Ativo 118 / 142 40% 1 25.09.2026 -
Fernando Mimbacas Juventud Ativo 109 / 128 40% 1 25.09.2026 -
Lucky Emmanuel Shooting Stars Ativo 95 / 109 40% 1 20.09.2026 -
Marco Miori Alvarado Ativo 97 / 127 40% 1 19.09.2026 -
Sédé Dion Golden Arrows Ativo 111 / 119 40% 1 19.09.2026 -
Luciano Cosentino Wanderers Ativo 123 / 104 40% 2 17.09.2026 -
Joaquín Zeballos Wanderers Ativo 114 / 116 40% 1 17.09.2026 -
Shodeinde Moses Ikorodu City Ativo 86 / 77 40% 1 15.09.2026 -
Santiago Toloza O'Higgins Ativo 124 / 117 40% 1 15.09.2026 -
Lebo Mothiba Mamelodi Sundowns Ativo 107 / 114 40% 3 12.09.2026 -
Nicolás Sosa Racing Ativo 121 / 114 40% 1 12.09.2026 -
Ibrahim Aliyu Houston Dynamo Ativo 116 / 110 40% 4 10.09.2026 -
CJ Fodrey Austin FC Ativo 90 / 117 40% 1 10.09.2026 -
Benji Kikanović San Jose Earthquakes Ativo 93 / 112 40% 1 10.09.2026 -
Enock Morrison Gor Mahia Ativo 87 / 105 40% 1 09.09.2026 -
Reed Baker-Whiting Nashville SC Ativo 98 / 128 40% 1 09.09.2026 -
Djibril Diani Charlotte Football Club Ativo 110 / 122 40% 1 09.09.2026 -
Patrick Schmidt Tarxien Rainbows Ativo 105 / 108 40% 1 09.09.2026 -
Ahmet Arslan Breidablik Ativo 113 / 108 40% 1 08.09.2026 -
Kagiso Malinga Bidvest Wits Ativo 88 / 113 40% 1 08.09.2026 -
Bruno Larregui Juventud Ativo 115 / 104 40% 2 04.09.2026 -
Victor Mbaoma Tusker Ativo 87 / 83 40% 1 04.09.2026 -
Antoni Sarcevic Bradford City Ativo 115 / 101 65% 1 31.08.2026 Aprovar
Justo Giani Universidad Catolica Ativo 111 / 138 40% 1 30.08.2026 -
Ousséni Bouda San Jose Earthquakes Ativo 101 / 103 40% 2 28.08.2026 -
Clemente Montes Universidad Catolica Ativo 111 / 128 40% 1 28.08.2026 -
Jack Lynn San Jose Earthquakes Ativo 90 / 97 40% 2 26.08.2026 -
Alejo Cruz Juventud Ativo 132 / 128 40% 1 25.08.2026 -
Craig Forsyth Derby County Ativo 104 / 112 65% 1 24.08.2026 Aprovar
Ivan Schranz Slavia Prague Ativo 137 / 109 40% 1 24.08.2026 -
Jeremy Rafanello Philadelphia Union Ativo 106 / 99 40% 1 24.08.2026 -
Jorge Obregón Deportivo Pasto Ativo 104 / 114 40% 1 23.08.2026 -
Joe Abrigo Palestino Ativo 109 / 92 40% 1 22.08.2026 -
Lucas González Estudiantes Ativo 119 / 128 40% 1 21.08.2026 -
Andrey Estupiñán Millonarios Ativo 118 / 100 40% 1 21.08.2026 -
Jáder Obrian Santa Fe Ativo 108 / 99 40% 1 20.08.2026 -
Daniel Ríos CF Montreal Ativo 116 / 106 40% 1 01.08.2026 -